Location: Freistadt
(48.5112°N, 14.5013°E)
Time: 15:43:41
(UTC+02:00)

CUBEBUG 2 - Pass Details

Date: 04 April 2023
Orbit: 577 x 685 km, 97.8° (Epoch: 02 June)

Event Time Altitude Azimuth Distance (km) Brightness Sun altitude
Rises 03:08:02 0° 19° (NNE) 3,064 ? -29.7°
Reaches altitude 10° 03:10:25 10° 26° (NNE) 2,135 ? -29.4°
Enters shadow 03:14:33 42° 86° (E) 968 ? -29.0°
